This is the latest recevied weather packets stored in our database for station/object IK2ILW-4. If no packets are shown the sender has not sent any weather packets the latest 10 day(s).
| Time | Temp. | Humidity | Pressure | Rain* | Wind** | Luminosity | Snow |
|---|---|---|---|---|---|---|---|
| 1777906661 | 12.78° C | 53% | 1018.7 hPa | 0 mm | - | 234 W/m² | - |
| 1777906360 | 12.78° C | 53% | 1018.7 hPa | 0 mm | - | 225 W/m² | - |
| 1777906059 | 13.33° C | 53% | 1018.7 hPa | 0 mm | - | 234 W/m² | - |
| 1777905755 | 13.33° C | 54% | 1018.7 hPa | 0 mm | - | 265 W/m² | - |
| 1777905455 | 13.33° C | 52% | 1018.7 hPa | 0 mm | - | 281 W/m² | - |
| 1777905171 | 13.33° C | 54% | 1018.7 hPa | 0 mm | - | 287 W/m² | - |
| 1777904868 | 12.78° C | 54% | 1018.9 hPa | 0 mm | - | 258 W/m² | - |
| 1777904567 | 12.78° C | 58% | 1018.9 hPa | 0 mm | - | 246 W/m² | - |
| 1777904264 | 12.78° C | 57% | 1018.9 hPa | 0 mm | - | 232 W/m² | - |
| 1777903963 | 12.78° C | 54% | 1019.3 hPa | 0 mm | - | 225 W/m² | - |
| 1777903660 | 12.78° C | 52% | 1019.3 hPa | 0 mm | - | 230 W/m² | - |
| 1777903359 | 12.78° C | 53% | 1019.3 hPa | 0 mm | - | 237 W/m² | - |
| 1777903059 | 12.78° C | 56% | 1019.3 hPa | 0 mm | - | 213 W/m² | - |
| 1777902758 | 12.78° C | 55% | 1019.3 hPa | 0 mm | - | 211 W/m² | - |
| 1777902454 | 13.33° C | 53% | 1019.3 hPa | 0 mm | - | 239 W/m² | - |
| 1777902151 | 13.33° C | 56% | 1019.3 hPa | 0 mm | - | 244 W/m² | - |
| 1777901852 | 13.33° C | 53% | 1019.3 hPa | 0 mm | - | 285 W/m² | - |
| 1777901571 | 13.33° C | 46% | 1019.3 hPa | 0 mm | - | 330 W/m² | - |
| 1777901251 | 12.78° C | 46% | 1019.7 hPa | 0 mm | - | 322 W/m² | - |
| 1777900967 | 13.33° C | 51% | 1019.7 hPa | 0 mm | - | 304 W/m² | - |
| 1777900663 | 13.33° C | 53% | 1019.7 hPa | 0 mm | - | 299 W/m² | - |
| 1777900359 | 14.44° C | 53% | 1019.7 hPa | 0 mm | - | 308 W/m² | - |
| 1777900059 | 13.89° C | 54% | 1019.7 hPa | 0 mm | - | 323 W/m² | - |
| 1777899759 | 14.44° C | 53% | 1019.7 hPa | 0 mm | - | 315 W/m² | - |
| 1777899459 | 13.89° C | 56% | 1019.6 hPa | 0 mm | - | 339 W/m² | - |
* Rain since midnight (hover to see other rain measurements)
** Current wind speed in m/s (hover to see current wind gust speed)